Location: Esp�n
(42.4593°N, 0.2047°W)
Time: 01:25:17
(UTC+00:00)

Cosmos 1763 Rocket - Pass Details

Date: 07 June 2020
Orbit: 733 x 780 km, 74.0° (Epoch: 15 July)

Event Time Altitude Azimuth Distance (km) Brightness Sun altitude
Exits shadow 00:05:59 71° 131° (SE) 781 3.3 -24.7°
Maximum altitude 00:06:13 72° 107° (ESE) 775 3.3 -24.7°
Drops below altitude 10° 00:11:15 10° 24° (NNE) 2,243 6.8 -24.7°
Sets 00:13:37 0° 22° (NNE) 3,168 7.9 -24.7°
